User: anonymous   Login
Location: El Para�so
(10.4896°N, 66.9245°W)
Time: 09:06:00
(UTC+00:00)
Language:

CZ-2C R/B - Orbit

View from above orbital plane
View from above orbital plane
View from above satellite
View from above satellite

Ground track
Ground track

The orbit data is extracted from the following two-line orbital elements,

1 28480U 04046B   20293.86735182 -.00000008 +00000-0 +12379-4 0  9997
2 28480 098.0684 319.1101 0141182 216.2557 318.3470 14.25729319828164
Epoch (UTC): 19 October 2020 20:48:59
Eccentricity: 0.0141182
inclination: 98.0684°
perigee height: 704 km
apogee height: 907 km
right ascension of ascending node: 319.1101°
argument of perigee: 216.2557°
revolutions per day: 14.25729319
mean anomaly at epoch: 318.3470°
orbit number at epoch: 82816

The dashed part of the orbit path shows where the satellite is in the earth's shadow,  

DLR